This demonstration page uses our WeatherBlox Daily Observations layout. Learn more.

Left ArrowRight Arrow

39.92423, -83.80882

Hourly Observations for March 22, 2018

Temp ( °F °C ) Dew Point ( °F °C ) Humidity (%) Winds ( mph kmh ) Pressure ( in mb ) Visibility ( mi km ) Precip ( " mm )
1:56 am 01:56 Clear 31 -0.6 23 -5 72 72 NW 6 9 30.17 1022 10 16 N/A
2:56 am 02:56 Clear 29 -1.7 22 -5.6 75 75 WNW 6 9 30.18 1022 10 16 N/A
3:56 am 03:56 Clear 28 -2.2 21 -6.1 75 75 NW 8 13 30.19 1022 10 16 N/A
4:56 am 04:56 Clear 26 -3.3 20 -6.7 78 78 NW 7 11 30.20 1023 10 16 N/A
5:56 am 05:56 Clear 25 -3.9 18 -7.8 75 75 NW 7 11 30.21 1023 10 16 N/A
6:56 am 06:56 Clear 23 -5 17 -8.3 78 78 WNW 6 9 30.23 1024 10 16 N/A
7:56 am 07:56 Sunny 21 -6.1 18 -7.8 88 88 WNW 8 13 30.25 1024 10 16 N/A
8:56 am 08:56 Sunny 25 -3.9 20 -6.7 81 81 WNW 8 13 30.27 1025 10 16 N/A
9:56 am 09:56 Sunny 29 -1.7 22 -5.6 75 75 WNW 7 11 30.28 1026 10 16 N/A
10:56 am 10:56 Sunny 31 -0.6 22 -5.6 69 69 NW 8 13 30.30 1026 10 16 N/A
11:56 am 11:56 Sunny 34 1.1 20 -6.7 56 56 WNW 7 11 30.31 1026 10 16 N/A
12:56 pm 12:56 Sunny 36 2.2 22 -5.6 57 57 W 9 15 30.31 1026 10 16 N/A
1:56 pm 13:56 Sunny 39 3.9 26 -3.3 60 60 NW 10 17 30.31 1026 10 16 N/A
2:56 pm 14:56 Sunny 41 5 24 -4.4 51 51 NW 10 17 30.30 1026 10 16 N/A
3:56 pm 15:56 Sunny 41 5 23 -5 49 49 NW 13 20 30.29 1026 10 16 N/A
4:56 pm 16:56 Sunny 41 5 25 -3.9 53 53 NW 13 20 30.29 1026 10 16 N/A
5:56 pm 17:56 Sunny 40 4.4 23 -5 51 51 WNW 13 20 30.29 1026 10 16 N/A
6:56 pm 18:56 Sunny 39 3.9 23 -5 53 53 W 12 19 30.29 1026 10 16 N/A
7:56 pm 19:56 Clear 34 1.1 21 -6.1 59 59 WNW 5 7 30.30 1026 10 16 N/A
8:56 pm 20:56 Clear 34 1.1 20 -6.7 56 56 W 3 6 30.30 1026 10 16 N/A
9:56 pm 21:56 Clear 31 -0.6 22 -5.6 69 69 WSW 3 6 30.31 1026 10 16 N/A
10:56 pm 22:56 Clear 28 -2.2 23 -5 81 81 SW 5 7 30.31 1026 10 16 N/A
11:56 pm 23:56 Clear 27 -2.8 22 -5.6 81 81 SW 6 9 30.30 1026 10 16 N/A

Powered by AerisWeather